Location: Nantong Television Tower
(32.0188°N, 120.8512°E)
Time: 10:58:12
(UTC+08:00)

Vanguard 3 - Visible Passes

Search period start: 21 October 2017 00:00
Search period end: 31 October 2017 00:00
Orbit: 510 x 3263 km, 33.3° (Epoch: 20 October)

Date Brightness Start Highest point End Pass type
(mag) Time Alt. Az. Time Alt. Az. Time Alt. Az.
21 Oct 9.9 02:14:38 44° SE 02:14:38 44° SE 02:24:20 10° E visible
21 Oct 8.8 04:19:15 27° WSW 04:28:12 78° SSE 04:36:26 10° ENE visible
22 Oct 10.7 01:05:13 22° ESE 01:05:13 22° ESE 01:09:34 10° E visible
22 Oct 9.3 03:09:49 54° SSW 03:13:05 64° SSE 03:23:04 10° E visible
22 Oct 8.5 05:14:25 11° W 05:27:16 86° N 05:34:28 10° E visible
23 Oct 9.9 02:00:20 46° ESE 02:00:20 46° ESE 02:09:10 10° E visible
23 Oct 8.9 04:04:56 35° WSW 04:12:24 84° SSE 04:21:19 10° E visible
24 Oct 10.8 00:50:48 21° E 00:50:48 21° E 00:54:26 10° E visible
24 Oct 9.3 02:55:23 67° SSW 02:57:01 71° SSE 03:07:51 10° ENE visible
24 Oct 8.7 04:59:58 17° W 05:11:38 84° N 05:19:26 10° E visible
25 Oct 10.0 01:45:47 45° ESE 01:45:47 45° ESE 01:53:52 10° E visible
25 Oct 9.0 03:50:22 44° WSW 03:56:31 88° SSE 04:06:10 10° E visible
26 Oct 10.9 00:36:09 19° E 00:36:09 19° E 00:39:06 10° E visible
26 Oct 9.3 02:40:44 77° SSE 02:40:49 77° SSE 02:52:33 10° ENE visible
26 Oct 8.8 04:45:19 22° W 04:55:56 84° N 05:04:23 10° E visible
27 Oct 10.1 01:31:03 42° E 01:31:03 42° E 01:38:26 10° ENE visible
27 Oct 9.1 03:35:38 54° W 03:40:31 89° N 03:50:58 10° E visible
27 Oct 8.6 05:41:27 10° W 05:55:09 89° NNE 06:02:29 10° E visible
28 Oct 11.0 00:21:21 17° E 00:21:21 17° E 00:23:34 10° E visible
28 Oct 9.4 02:25:55 77° ESE 02:25:55 77° ESE 02:37:10 10° ENE visible
28 Oct 9.0 04:30:30 28° W 04:40:09 84° N 04:49:15 10° E visible
28 Oct11.723:11:37ENE23:11:37ENE22:30:50SSWvisible
29 Oct 10.3 01:16:11 38° E 01:16:11 38° E 01:22:53 10° ENE visible
29 Oct 9.2 03:20:45 63° W 03:24:28 87° N 03:35:42 10° E visible
29 Oct 8.8 05:25:21 11° W 05:39:28 87° SSW 05:47:24 10° ESE visible
30 Oct 11.1 00:06:26 14° E 00:06:26 14° E 00:07:52 10° ENE visible
30 Oct 9.6 02:11:01 69° E 02:11:01 69° E 02:21:44 10° ENE visible
30 Oct 9.1 04:15:35 34° W 04:24:15 85° N 04:34:07 10° E visible
